Location: Dana
(41.8364°N, 106.7042°W)
Time: 02:08:58
(UTC+00:00)

Transit 4A - Pass Details

Date: 19 May 2026
Orbit: 860 x 980 km, 66.8° (Epoch: 6 June)

Event Time Altitude Azimuth Distance (km) Brightness Sun altitude
Rises 21:38:39 0° 335° (NNW) 3,686 11.1 50.6°
Reaches altitude 10° 21:41:36 10° 346° (NNW) 2,739 10.4 50.1°
Maximum altitude 21:47:08 30° 46° (NE) 1,697 9.3 49.1°
Drops below altitude 10° 21:52:37 10° 106° (ESE) 2,712 10.1 48.2°
Sets 21:55:31 0° 117° (ESE) 3,643 10.7 47.7°
